Regional Weather Roundup
Issued by NWS

Home | Current Version | Previous Version | Graphics & Text | Print | Product List | Glossary On
Versions: 1 2 3 4 5 6 7 8 9 10 11 12 13 14 15 16 17 18 19 20 21 22 23 24 25 26 27 28 29 30 31 32 33 34 35 36 37 38 39 40 41 42 43 44 45 46 47 48 49 50
000
ASUS43 KLMK 272010
RWRKY
NATIONAL WEATHER SERVICE LOUISVILLE KY
300 PM EST THU NOV 27 2014

NOTE "FAIR" INDICATES FEW OR NO CLOUDS BELOW 12,000 FEET
WITH NO SIGNIFICANT WEATHER AND/OR OBSTRUCTIONS TO VISIBILITY.

KYZ001>023-026-027-061>063-070>075-272100-
WESTERN AND SOUTH CENTRAL KENTUCKY

CITY           SKY/WX    TMP DP  RH WIND       PRES   REMARKS
PADUCAH        CLOUDY    33  25  72 NW9       30.47S WCI  25
HENDERSON      CLOUDY    30  23  74 W16G22    30.45S WCI  19
OWENSBORO      CLOUDY    32  24  72 NW9G18    30.44R WCI  24
HOPKINSVILLE   PTSUNNY   32  21  64 W9        30.44S WCI  24
BOWLING GREEN  CLOUDY    31  23  72 W10       30.43S WCI  22
GLASGOW        CLOUDY    31  26  81 W6        30.40S WCI  25
$$

KYZ024-025-028>034-038-045-046-053-272100-
NORTH CENTRAL KENTUCKY

CITY           SKY/WX    TMP DP  RH WIND       PRES   REMARKS
LOUISVILLE/SDF CLOUDY    34  24  67 W10       30.36S WCI  26
LOUISVILLE/LOU CLOUDY    34  23  64 W9        30.36S WCI  27
FORT KNOX      CLOUDY    31  25  79 W14       30.36R WCI  21
$$

KYZ035>037-039>044-047>052-055>060-089>105-272100-
NORTHEAST KENTUCKY

CITY           SKY/WX    TMP DP  RH WIND       PRES   REMARKS
LEXINGTON      CLOUDY    33  23  66 W12       30.31R WCI  24
COVINGTON      LGT SNOW  31  22  69 W17       30.29S WCI  19
FRANKFORT      CLOUDY    33  22  63 W10G17    30.32R WCI  25
$$

KYZ054-064>069-076>088-106>120-272100-
SOUTHEAST KENTUCKY

CITY           SKY/WX    TMP DP  RH WIND       PRES   REMARKS
JACKSON        CLOUDY    30  22  72 VRB7G20   30.27R WCI  23
LONDON         CLOUDY    31  24  75 NW7       30.32R HAZE    WCI  24
SOMERSET       CLOUDY    30  27  86 NW9       30.37R WCI  22
MIDDLESBORO    NOT AVBL
MONTICELLO     FLURRIES  32  27  82 NW15      30.38S WCI  22
$$



USA.gov is the U.S. government's official web portal to all federal, state and local government web resources and services.